星链-5849 (STARLINK-5849 )

导读

STARLINK-5849是美国SpaceX公司星链(Starlink)卫星互联网项目的量产低轨通信卫星,于2023年3月17日发射入轨。它属于星链星座组网的组成部分,采用平板设计、霍尔推进系统,搭载相控阵通信天线,可通过星间激光链路实现高速数据传输,为全球偏远地区提供低延迟宽带互联网服务,目前已在轨运行近三年,承担全球卫星互联网组网覆盖任务。

基本信息
目录编号:
55924
目录名称:
STARLINK-5849
国际标识:
2023-037L
轨道中心:
EARTH
卫星名称:
星链-5849
卫星全名:
星链-5849 (STARLINK-5849 )
卫星状态:
在轨 (已飞行1274 天)
发射日期:
2023-03-17 UTC
国别 :
美国 (US)
星等 :
--
该卫星已列入 空间交会检测服务 Space Conjunction Data Service (SCDS) ,当前飞行风险评估等级: 无高风险
轨道信息
数据来源 国际轨道数据
星历时间: 2026-09-10T09:33:58+0800
1天前
查看轨道信息
半长轴: 6950.181km
偏心率: 0.0002913
轨道倾角: 70.000°
近地点辐角 269.889°
升交点赤经 179.749°
平近点角 90.194°
近地点: 570.019km
远地点: 574.069km
周期: 96.107分钟
每日圈数: 14.98334
详细信息
固有亮度:
5
最大亮度:
2.5
卫星平台:
Starlink v1.5
覆盖范围:
全球
运营商:
太空探索技术公司
运营商所在国:
美国
制造商(研发单位):
太空探索技术公司
制造商所在国:
美国
使用方式:
暂无
卫星简介
星链(Starlink)计划是由太空探索技术公司(SpaceX)提出的一个巨型低轨卫星互联网星座项目,计划在2019年至2024年间在太空搭建由约1.2万颗卫星组成的“星链”网络,其中1584颗将部署在地球上空550千米处的近地轨道,并从2020年开始工作。该卫星仍在工作。
2D轨道图
3D轨道图
轨道高度分析图
轨道倾角分析图
轨道综合分析图
查看轨道综合分析图
交会数据列表
事件ID 空间交会对象 最接近时刻(TCA) 交会距离 交会风险概率(CRP) 交会风险指数(CRI) 操作
CDM_260911-160201-659105-592428
USA 15 (16591)
2026-09-11T
16:02:43+0000
1.287 km
极远距离
1.085755E-5 中风险 0.56
CDM_260912-055504-996105-592424
2026-09-12T
05:55:07+0000
1.441 km
极远距离
4.4633E-6 低风险 0.48
CDM_260911-120104-053305-592423
2026-09-11T
12:01:34+0000
2.269 km
极远距离
2.098496E-6 低风险 0.41
CDM_260913-002703-722305-592422
2026-09-13T
00:27:51+0000
2.823 km
极远距离
6.284442E-7 极低风险 0.31
CDM_260906-032504-916605-592422
2026-09-06T
03:25:38+0000
2.902 km
极远距离
3.800195E-7 极低风险 0.27
与全量物体交会距离演化趋势
与全量物体交会风险概率演化趋势